Santa Ana, CA

12:16 AM PDT on May 01, 2017 (GMT -0700)
John Wayne-Orange County

Weather History for KSNA - February, 2011

Change the Weather History Date:

Wednesday, February 23, 2011

  Actual Average Record
Temperature  
Mean Temperature 54 °F 58 °F  
Max Temperature 61 °F 66 °F 79 °F (2016)
Min Temperature 46 °F 49 °F 43 °F (2006)
Degree Days  
Heating Degree Days 11 7  
Month to date heating degree days 204 180  
Since 1 July heating degree days 683 872  
Cooling Degree Days 0 0  
Month to date cooling degree days 0 0  
Year to date cooling degree days 4 5  
Growing Degree Days 3 (Base 50)    
Moisture  
Dew Point 43 °F    
Average Humidity 65    
Maximum Humidity 80    
Minimum Humidity 49    
Precipitation  
Precipitation 0.00 in 0.13 in 0.71 in (2005)
Month to date precipitation 1.01 2.37  
Year to date precipitation 1.80 5.28  
Since 1 July precipitation 14.45  
Snow  
Snow 0.00 in - - ()
Month to date snowfall 0.0  
Year to date snowfall 0.0  
Snow Depth 0.00 in    
Sea Level Pressure  
Sea Level Pressure 30.08 in    
Wind  
Wind Speed 4 mph (South)    
Max Wind Speed 13 mph    
Max Gust Speed 18 mph    
Visibility 10 miles    
Events      
T = Trace of Precipitation, MM = Missing Value Source: NWS Daily Summary

Daily Weather History Graph

Daily Weather History Graph

Search for Another Location

Airport or City:

Trip Planner

Search our weather history database for the weather conditions in past years. The results will help you decide how hot, cold, wet, or windy it might be!

Date:

Astronomy

Feb. 23, 2011 Rise Set
Actual Time 6:27 AM PST 5:42 PM PST
Civil Twilight 6:02 AM PST 6:08 PM PST
Nautical Twilight 5:33 AM PST 6:37 PM PST
Astronomical Twilight 5:04 AM PST 7:05 PM PST
Moon No Moon Rise 9:41 AM PST (2/23)
Length of Visible Light 12h 05m
Length of Day
11h 15m
Waning Gibbous, 63% of the Moon is Illuminated
Feb 23
Waning Gibbous
Feb 24
Last Quarter
Mar 4
New
Mar 12
First Quarter
Mar 19
Full

Hourly Weather History & Observations

Time (PST) Temp. Windchill Dew Point Humidity Pressure Visibility Wind Dir Wind Speed Gust Speed Precip Events Conditions
12:53 AM 48.0 °F - 42.1 °F 80% 30.06 in 10.0 mi NNE 3.5 mph - N/A   Clear
1:53 AM 48.9 °F - 42.1 °F 77% 30.05 in 10.0 mi ESE 5.8 mph - N/A   Clear
2:53 AM 48.0 °F - 41.0 °F 77% 30.04 in 10.0 mi Calm Calm - N/A   Clear
3:53 AM 46.0 °F 44.8 °F 39.9 °F 79% 30.03 in 10.0 mi NNE 3.5 mph - N/A   Clear
4:53 AM 46.0 °F - 39.9 °F 79% 30.04 in 10.0 mi Calm Calm - N/A   Scattered Clouds
5:53 AM 48.0 °F - 41.0 °F 77% 30.04 in 10.0 mi North 3.5 mph - N/A   Mostly Cloudy
6:53 AM 48.0 °F - 41.0 °F 77% 30.06 in 10.0 mi NNE 3.5 mph - N/A   Mostly Cloudy
7:53 AM 51.1 °F - 41.0 °F 68% 30.07 in 10.0 mi Calm Calm - N/A   Mostly Cloudy
8:02 AM 51.8 °F - 41.0 °F 67% 30.08 in 10.0 mi East 3.5 mph - N/A   Overcast
8:53 AM 53.1 °F - 42.1 °F 66% 30.09 in 10.0 mi Calm Calm - N/A   Overcast
9:53 AM 55.0 °F - 43.0 °F 64% 30.10 in 10.0 mi Calm Calm - N/A   Overcast
10:53 AM 55.9 °F - 44.1 °F 64% 30.10 in 10.0 mi SSW 3.5 mph - N/A   Overcast
11:32 AM 57.2 °F - 42.8 °F 59% 30.09 in 10.0 mi SW 6.9 mph - N/A   Overcast
11:53 AM 59.0 °F - 45.0 °F 60% 30.09 in 10.0 mi South 10.4 mph - N/A   Mostly Cloudy
12:53 PM 60.1 °F - 41.0 °F 49% 30.07 in 10.0 mi SSW 10.4 mph - N/A   Mostly Cloudy
1:53 PM 59.0 °F - 42.1 °F 53% 30.06 in 10.0 mi SSW 11.5 mph - N/A   Scattered Clouds
2:53 PM 59.0 °F - 43.0 °F 55% 30.06 in 10.0 mi SW 9.2 mph - N/A   Scattered Clouds
3:53 PM 59.0 °F - 39.9 °F 49% 30.05 in 10.0 mi South 10.4 mph - N/A   Scattered Clouds
4:53 PM 57.0 °F - 43.0 °F 59% 30.06 in 10.0 mi South 9.2 mph - N/A   Mostly Cloudy
5:53 PM 55.9 °F - 43.0 °F 62% 30.07 in 10.0 mi SSW 8.1 mph - N/A   Mostly Cloudy
6:53 PM 55.9 °F - 45.0 °F 67% 30.09 in 10.0 mi Calm Calm - N/A   Mostly Cloudy
7:53 PM 55.4 °F - 46.4 °F 72% 30.09 in 10.0 mi Calm Calm - N/A   Scattered Clouds
8:53 PM 54.0 °F - 45.0 °F 72% 30.11 in 10.0 mi Calm Calm - N/A   Scattered Clouds
9:53 PM 53.6 °F - 44.6 °F 72% 30.12 in 10.0 mi Calm Calm - N/A   Scattered Clouds
10:00 PM 53.6 °F - 44.6 °F 72% 30.12 in 10.0 mi Calm Calm - N/A   Mostly Cloudy
10:53 PM 54.0 °F - 44.1 °F 69% 30.14 in 10.0 mi Calm Calm - N/A   Overcast
11:53 PM 54.0 °F - 44.1 °F 69% 30.14 in 10.0 mi Calm Calm - N/A   Mostly Cloudy